Wetterdaten: Sonntag, 01.12.2013
Datum Zeit Temperatur Luftfeuchte Luftdruck Regen Wind Richtung Richtung Taupunkt Windchill Windben
01.12.2013 00:04 -3,8 C 95 % 1024,3 hPa 0,0 l/m 0,0 km/h (0 Bft) O-NO 67 -4,5 C -4,0 C 0,0 km/h (0 Bft)
01.12.2013 00:05 -3,8 C 95 % 1024,3 hPa 0,0 l/m 0,0 km/h (0 Bft) O-NO 67 -4,5 C -4,0 C 0,0 km/h (0 Bft)
01.12.2013 00:15 -4,1 C 95 % 1024,3 hPa 0,0 l/m 0,0 km/h (0 Bft) O 90 -4,8 C -4,3 C 0,0 km/h (0 Bft)
01.12.2013 00:20 -4,5 C 94 % 1024,3 hPa 0,0 l/m 0,0 km/h (0 Bft) O 90 -5,3 C -4,4 C 0,0 km/h (0 Bft)
01.12.2013 00:26 -4,9 C 94 % 1024,5 hPa 0,0 l/m 0,0 km/h (0 Bft) O 90 -5,7 C -4,7 C 0,0 km/h (0 Bft)
01.12.2013 00:30 -4,5 C 94 % 1024,5 hPa 0,0 l/m 0,0 km/h (0 Bft) O 90 -5,3 C -5,0 C 0,0 km/h (0 Bft)
01.12.2013 00:37 -4,8 C 94 % 1024,5 hPa 0,0 l/m 0,0 km/h (0 Bft) SO 135 -5,6 C -5,0 C 0,0 km/h (0 Bft)
01.12.2013 00:40 -5,0 C 94 % 1024,5 hPa 0,0 l/m 0,0 km/h (0 Bft) O-SO 112 -5,8 C -5,0 C 0,0 km/h (0 Bft)
01.12.2013 00:48 -5,0 C 94 % 1024,5 hPa 0,0 l/m 0,0 km/h (0 Bft) O 90 -5,8 C -5,2 C 0,0 km/h (0 Bft)
01.12.2013 00:50 -5,0 C 94 % 1024,5 hPa 0,0 l/m 0,0 km/h (0 Bft) O 90 -5,8 C -5,2 C 0,0 km/h (0 Bft)
01.12.2013 00:59 -4,8 C 94 % 1024,5 hPa 0,0 l/m 0,0 km/h (0 Bft) NO 45 -5,6 C -5,0 C 0,0 km/h (0 Bft)
01.12.2013 01:00 -4,8 C 94 % 1024,5 hPa 0,0 l/m 0,0 km/h (0 Bft) NO 45 -5,6 C -5,0 C 0,0 km/h (0 Bft)
01.12.2013 01:10 -4,7 C 93 % 1024,7 hPa 0,0 l/m 0,0 km/h (0 Bft) SO 135 -5,7 C -4,9 C 0,0 km/h (0 Bft)
01.12.2013 01:15 -4,7 C 93 % 1024,7 hPa 0,0 l/m 0,0 km/h (0 Bft) NO 45 -5,7 C -4,6 C 0,0 km/h (0 Bft)
01.12.2013 01:21 -4,5 C 93 % 1024,7 hPa 0,0 l/m 0,0 km/h (0 Bft) O-NO 67 -5,5 C -4,5 C 0,0 km/h (0 Bft)
01.12.2013 01:25 -4,2 C 94 % 1025,1 hPa 0,0 l/m 0,0 km/h (0 Bft) O 90 -5,0 C -4,3 C 0,0 km/h (0 Bft)
01.12.2013 01:32 -4,1 C 94 % 1025,1 hPa 0,0 l/m 0,0 km/h (0 Bft) O 90 -4,9 C -4,1 C 0,0 km/h (0 Bft)
01.12.2013 01:35 -4,1 C 94 % 1025,1 hPa 0,0 l/m 0,0 km/h (0 Bft) O 90 -4,9 C -4,1 C 0,0 km/h (0 Bft)
01.12.2013 01:43 -3,9 C 94 % 1025,1 hPa 0,0 l/m 0,0 km/h (0 Bft) O-SO 112 -4,7 C -3,9 C 0,0 km/h (0 Bft)
01.12.2013 01:45 -3,9 C 94 % 1025,1 hPa 0,0 l/m 0,0 km/h (0 Bft) O-SO 112 -4,7 C -3,9 C 0,0 km/h (0 Bft)
01.12.2013 01:54 -3,9 C 94 % 1025,1 hPa 0,0 l/m 0,0 km/h (0 Bft) NO 45 -4,7 C -3,8 C 0,0 km/h (0 Bft)
01.12.2013 01:55 -3,9 C 94 % 1025,1 hPa 0,0 l/m 0,0 km/h (0 Bft) NO 45 -4,7 C -3,8 C 0,0 km/h (0 Bft)
01.12.2013 02:05 -3,9 C 94 % 1025,1 hPa 0,0 l/m 0,0 km/h (0 Bft) S-SW 202 -4,7 C -3,7 C 0,0 km/h (0 Bft)
01.12.2013 02:10 -3,8 C 94 % 1025,1 hPa 0,0 l/m 0,0 km/h (0 Bft) W 270 -4,6 C -3,7 C 0,0 km/h (0 Bft)
01.12.2013 02:16 -3,8 C 94 % 1025,1 hPa 0,0 l/m 0,0 km/h (0 Bft) W-SW 247 -4,6 C -3,7 C 0,0 km/h (0 Bft)
01.12.2013 02:20 -3,9 C 94 % 1025,1 hPa 0,0 l/m 0,0 km/h (0 Bft) SO 135 -4,7 C -3,7 C 0,0 km/h (0 Bft)
01.12.2013 02:27 -4,1 C 94 % 1025,1 hPa 0,0 l/m 0,0 km/h (0 Bft) SO 135 -4,9 C -3,8 C 0,0 km/h (0 Bft)
01.12.2013 02:30 -4,1 C 94 % 1025,1 hPa 0,0 l/m 0,0 km/h (0 Bft) S-SW 202 -4,9 C -4,0 C 0,0 km/h (0 Bft)
01.12.2013 02:38 -4,1 C 93 % 1025,1 hPa 0,0 l/m 0,0 km/h (0 Bft) W-SW 247 -5,1 C -4,1 C 0,0 km/h (0 Bft)
01.12.2013 02:40 -4,1 C 93 % 1025,1 hPa 0,0 l/m 0,0 km/h (0 Bft) W-SW 247 -5,1 C -4,1 C 0,0 km/h (0 Bft)
01.12.2013 02:49 -4,4 C 93 % 1025,0 hPa 0,0 l/m 0,0 km/h (0 Bft) NO 45 -5,4 C -4,3 C 0,0 km/h (0 Bft)
01.12.2013 02:50 -4,4 C 93 % 1025,0 hPa 0,0 l/m 0,0 km/h (0 Bft) NO 45 -5,4 C -4,3 C 0,0 km/h (0 Bft)
01.12.2013 03:00 -4,7 C 93 % 1025,0 hPa 0,0 l/m 0,0 km/h (0 Bft) S-SW 202 -5,7 C -4,5 C 0,0 km/h (0 Bft)
01.12.2013 03:05 -4,7 C 93 % 1025,1 hPa 0,0 l/m 0,0 km/h (0 Bft) S-SW 202 -5,7 C -4,5 C 0,0 km/h (0 Bft)
01.12.2013 03:10 -4,7 C 93 % 1025,1 hPa 0,0 l/m 0,0 km/h (0 Bft) W-NW 292 -5,7 C -4,5 C 0,0 km/h (0 Bft)
01.12.2013 03:15 -4,7 C 93 % 1025,1 hPa 0,0 l/m 0,0 km/h (0 Bft) NO 45 -5,7 C -4,7 C 0,0 km/h (0 Bft)
01.12.2013 03:21 -4,7 C 93 % 1025,1 hPa 0,0 l/m 0,0 km/h (0 Bft) N-NO 22 -5,7 C -4,7 C 0,0 km/h (0 Bft)
01.12.2013 03:25 -4,8 C 93 % 1024,9 hPa 0,0 l/m 0,0 km/h (0 Bft) NO 45 -5,8 C -4,7 C 0,0 km/h (0 Bft)
01.12.2013 03:32 -5,4 C 92 % 1024,9 hPa 0,0 l/m 0,0 km/h (0 Bft) NO 45 -6,5 C -5,1 C 0,0 km/h (0 Bft)
01.12.2013 03:35 -5,4 C 92 % 1024,9 hPa 0,0 l/m 0,0 km/h (0 Bft) NO 45 -6,5 C -5,1 C 0,0 km/h (0 Bft)
01.12.2013 03:43 -6,2 C 92 % 1024,8 hPa 0,0 l/m 0,0 km/h (0 Bft) N-NW 337 -7,3 C -5,9 C 0,0 km/h (0 Bft)
01.12.2013 03:45 -6,2 C 92 % 1024,8 hPa 0,0 l/m 0,0 km/h (0 Bft) N-NW 337 -7,3 C -5,9 C 0,0 km/h (0 Bft)
01.12.2013 03:54 -6,3 C 91 % 1024,8 hPa 0,0 l/m 0,0 km/h (0 Bft) N-NW 337 -7,5 C -6,3 C 0,0 km/h (0 Bft)
01.12.2013 03:55 -6,3 C 91 % 1024,8 hPa 0,0 l/m 0,0 km/h (0 Bft) N-NW 337 -7,5 C -6,3 C 0,0 km/h (0 Bft)
01.12.2013 04:05 -7,1 C 91 % 1024,8 hPa 0,0 l/m 0,0 km/h (0 Bft) N 360 -8,3 C -6,8 C 0,0 km/h (0 Bft)
01.12.2013 04:10 -7,1 C 90 % 1024,8 hPa 0,0 l/m 0,0 km/h (0 Bft) N 360 -8,5 C -7,1 C 0,0 km/h (0 Bft)
01.12.2013 04:16 -7,6 C 90 % 1024,8 hPa 0,0 l/m 0,0 km/h (0 Bft) N 360 -8,9 C -7,4 C 0,0 km/h (0 Bft)
01.12.2013 04:20 -7,4 C 90 % 1024,8 hPa 0,0 l/m 0,0 km/h (0 Bft) N 360 -8,8 C -7,6 C 0,0 km/h (0 Bft)
01.12.2013 04:27 -6,8 C 90 % 1024,9 hPa 0,0 l/m 0,0 km/h (0 Bft) O-SO 112 -8,2 C -7,4 C 0,0 km/h (0 Bft)
01.12.2013 04:30 -6,8 C 90 % 1024,9 hPa 0,0 l/m 0,0 km/h (0 Bft) O-SO 112 -8,2 C -7,4 C 0,0 km/h (0 Bft)
01.12.2013 04:38 -7,9 C 89 % 1024,9 hPa 0,0 l/m 1,0 km/h (0 Bft) O 90 -9,4 C -7,4 C 0,0 km/h (0 Bft)
01.12.2013 04:40 -7,9 C 89 % 1024,9 hPa 0,0 l/m 1,0 km/h (0 Bft) O 90 -9,4 C -7,4 C 0,0 km/h (0 Bft)
01.12.2013 04:49 -8,0 C 89 % 1024,8 hPa 0,0 l/m 0,0 km/h (0 Bft) O 90 -9,5 C -8,0 C 0,0 km/h (0 Bft)
01.12.2013 04:50 -8,0 C 89 % 1024,8 hPa 0,0 l/m 0,0 km/h (0 Bft) O 90 -9,5 C -8,0 C 0,0 km/h (0 Bft)
01.12.2013 05:00 -8,7 C 88 % 1024,8 hPa 0,0 l/m 0,0 km/h (0 Bft) O 90 -10,3 C -8,5 C 0,0 km/h (0 Bft)
01.12.2013 05:05 -8,6 C 88 % 1024,8 hPa 0,0 l/m 0,0 km/h (0 Bft) O 90 -10,2 C -8,6 C 0,0 km/h (0 Bft)
01.12.2013 05:11 -8,6 C 88 % 1024,8 hPa 0,0 l/m 0,0 km/h (0 Bft) O 90 -10,2 C -8,7 C 0,0 km/h (0 Bft)
01.12.2013 05:15 -9,0 C 87 % 1024,8 hPa 0,0 l/m 0,0 km/h (0 Bft) O 90 -10,8 C -9,0 C 0,0 km/h (0 Bft)
01.12.2013 05:22 -8,2 C 88 % 1024,8 hPa 0,0 l/m 0,0 km/h (0 Bft) O 90 -9,8 C -9,0 C 0,0 km/h (0 Bft)
01.12.2013 05:25 -8,2 C 88 % 1024,8 hPa 0,0 l/m 0,0 km/h (0 Bft) O 90 -9,8 C -9,0 C 0,0 km/h (0 Bft)
01.12.2013 05:33 -9,3 C 87 % 1024,8 hPa 0,0 l/m 0,0 km/h (0 Bft) O 90 -11,1 C -8,9 C 0,0 km/h (0 Bft)
01.12.2013 05:35 -9,3 C 87 % 1024,8 hPa 0,0 l/m 0,0 km/h (0 Bft) O 90 -11,1 C -8,9 C 0,0 km/h (0 Bft)
01.12.2013 05:44 -9,3 C 87 % 1024,8 hPa 0,0 l/m 0,0 km/h (0 Bft) O 90 -11,1 C -9,3 C 0,0 km/h (0 Bft)
01.12.2013 05:45 -9,3 C 87 % 1024,8 hPa 0,0 l/m 0,0 km/h (0 Bft) O 90 -11,1 C -9,3 C 0,0 km/h (0 Bft)
01.12.2013 05:55 -9,7 C 86 % 1024,8 hPa 0,0 l/m 0,0 km/h (0 Bft) O 90 -11,6 C -9,5 C 0,0 km/h (0 Bft)
01.12.2013 06:00 -9,7 C 86 % 1024,8 hPa 0,0 l/m 0,0 km/h (0 Bft) O 90 -11,6 C -9,7 C 0,0 km/h (0 Bft)
01.12.2013 06:06 -9,2 C 86 % 1024,9 hPa 0,0 l/m 0,0 km/h (0 Bft) O 90 -11,1 C -9,6 C 0,0 km/h (0 Bft)
01.12.2013 06:10 -9,1 C 86 % 1024,9 hPa 0,0 l/m 0,0 km/h (0 Bft) O 90 -11,0 C -9,6 C 0,0 km/h (0 Bft)
01.12.2013 06:17 -9,3 C 86 % 1024,9 hPa 0,0 l/m 0,0 km/h (0 Bft) O 90 -11,2 C -9,5 C 0,0 km/h (0 Bft)
01.12.2013 06:20 -9,6 C 86 % 1024,9 hPa 0,0 l/m 0,0 km/h (0 Bft) O 90 -11,5 C -9,6 C 0,0 km/h (0 Bft)
01.12.2013 06:28 -10,0 C 86 % 1025,1 hPa 0,0 l/m 0,0 km/h (0 Bft) O 90 -11,9 C -9,9 C 0,0 km/h (0 Bft)
01.12.2013 06:30 -10,0 C 86 % 1025,1 hPa 0,0 l/m 0,0 km/h (0 Bft) O 90 -11,9 C -9,9 C 0,0 km/h (0 Bft)
01.12.2013 06:39 -9,8 C 85 % 1025,1 hPa 0,0 l/m 0,0 km/h (0 Bft) O 90 -11,8 C -10,0 C 0,0 km/h (0 Bft)
01.12.2013 06:40 -9,8 C 85 % 1025,1 hPa 0,0 l/m 0,0 km/h (0 Bft) O 90 -11,8 C -10,0 C 0,0 km/h (0 Bft)
01.12.2013 06:50 -9,9 C 85 % 1025,2 hPa 0,0 l/m 0,0 km/h (0 Bft) O 90 -11,9 C -9,9 C 0,0 km/h (0 Bft)
01.12.2013 06:55 -10,0 C 85 % 1025,2 hPa 0,0 l/m 0,0 km/h (0 Bft) O 90 -12,0 C -9,8 C 0,0 km/h (0 Bft)
01.12.2013 07:01 -9,9 C 85 % 1025,2 hPa 0,0 l/m 0,0 km/h (0 Bft) O 90 -11,9 C -9,9 C 0,0 km/h (0 Bft)
01.12.2013 07:05 -10,0 C 85 % 1025,4 hPa 0,0 l/m 0,0 km/h (0 Bft) O 90 -12,0 C -9,9 C 0,0 km/h (0 Bft)
01.12.2013 07:12 -9,9 C 85 % 1025,4 hPa 0,0 l/m 0,0 km/h (0 Bft) O 90 -11,9 C -9,9 C 0,0 km/h (0 Bft)
01.12.2013 07:15 -9,8 C 85 % 1025,4 hPa 0,0 l/m 0,0 km/h (0 Bft) O 90 -11,8 C -10,0 C 0,0 km/h (0 Bft)
01.12.2013 07:23 -10,2 C 85 % 1025,3 hPa 0,0 l/m 0,0 km/h (0 Bft) O 90 -12,2 C -10,1 C 0,0 km/h (0 Bft)
01.12.2013 07:25 -10,2 C 85 % 1025,3 hPa 0,0 l/m 0,0 km/h (0 Bft) O 90 -12,2 C -10,1 C 0,0 km/h (0 Bft)
01.12.2013 07:34 -10,8 C 84 % 1025,3 hPa 0,0 l/m 0,0 km/h (0 Bft) O 90 -13,0 C -10,2 C 0,0 km/h (0 Bft)
01.12.2013 07:35 -10,8 C 84 % 1025,3 hPa 0,0 l/m 0,0 km/h (0 Bft) O 90 -13,0 C -10,2 C 0,0 km/h (0 Bft)
01.12.2013 07:45 -10,5 C 84 % 1025,6 hPa 0,0 l/m 0,0 km/h (0 Bft) O 90 -12,7 C -10,2 C 0,0 km/h (0 Bft)
01.12.2013 07:50 -10,6 C 84 % 1025,6 hPa 0,0 l/m 0,0 km/h (0 Bft) O 90 -12,8 C -10,2 C 0,0 km/h (0 Bft)
01.12.2013 07:56 -10,2 C 84 % 1025,6 hPa 0,0 l/m 0,0 km/h (0 Bft) O 90 -12,4 C -10,2 C 0,0 km/h (0 Bft)
01.12.2013 08:00 -10,1 C 84 % 1025,6 hPa 0,0 l/m 0,0 km/h (0 Bft) O 90 -12,3 C -10,2 C 0,0 km/h (0 Bft)
01.12.2013 08:06 -10,2 C 84 % 1025,8 hPa 0,0 l/m 0,0 km/h (0 Bft) S 180 -12,4 C -10,1 C 0,0 km/h (0 Bft)
01.12.2013 08:10 -10,3 C 84 % 1025,8 hPa 0,0 l/m 0,0 km/h (0 Bft) S 180 -12,5 C -10,1 C 0,0 km/h (0 Bft)
01.12.2013 08:17 -10,4 C 84 % 1025,8 hPa 0,0 l/m 0,0 km/h (0 Bft) S 180 -12,6 C -10,2 C 0,0 km/h (0 Bft)
01.12.2013 08:20 -10,4 C 84 % 1025,8 hPa 0,0 l/m 0,0 km/h (0 Bft) S 180 -12,6 C -10,2 C 0,0 km/h (0 Bft)
01.12.2013 08:28 -10,1 C 84 % 1025,9 hPa 0,0 l/m 0,0 km/h (0 Bft) SO 135 -12,3 C -10,1 C 0,0 km/h (0 Bft)
01.12.2013 08:30 -10,1 C 84 % 1025,9 hPa 0,0 l/m 0,0 km/h (0 Bft) SO 135 -12,3 C -10,1 C 0,0 km/h (0 Bft)
01.12.2013 08:39 -10,3 C 84 % 1025,9 hPa 0,0 l/m 0,0 km/h (0 Bft) S 180 -12,5 C -10,0 C 0,0 km/h (0 Bft)
01.12.2013 08:40 -10,3 C 84 % 1025,9 hPa 0,0 l/m 0,0 km/h (0 Bft) S 180 -12,5 C -10,0 C 0,0 km/h (0 Bft)
01.12.2013 08:50 -9,8 C 85 % 1025,9 hPa 0,0 l/m 0,0 km/h (0 Bft) SO 135 -11,8 C -9,8 C 0,0 km/h (0 Bft)
01.12.2013 08:55 -10,0 C 84 % 1025,9 hPa 0,0 l/m 0,0 km/h (0 Bft) SO 135 -12,2 C -9,6 C 0,0 km/h (0 Bft)
01.12.2013 09:01 -10,0 C 84 % 1025,9 hPa 0,0 l/m 0,0 km/h (0 Bft) SO 135 -12,2 C -9,5 C 0,0 km/h (0 Bft)
01.12.2013 09:05 -9,7 C 85 % 1026,1 hPa 0,0 l/m 0,0 km/h (0 Bft) SO 135 -11,7 C -9,5 C 0,0 km/h (0 Bft)
01.12.2013 09:12 -9,6 C 85 % 1026,1 hPa 0,0 l/m 0,0 km/h (0 Bft) S 180 -11,6 C -9,3 C 0,0 km/h (0 Bft)
01.12.2013 09:15 -9,6 C 85 % 1026,1 hPa 0,0 l/m 0,0 km/h (0 Bft) S 180 -11,6 C -9,3 C 0,0 km/h (0 Bft)
01.12.2013 09:23 -8,8 C 86 % 1025,9 hPa 0,0 l/m 0,0 km/h (0 Bft) O-SO 112 -10,7 C -8,9 C 0,0 km/h (0 Bft)
01.12.2013 09:25 -8,8 C 86 % 1025,9 hPa 0,0 l/m 0,0 km/h (0 Bft) O-SO 112 -10,7 C -8,9 C 0,0 km/h (0 Bft)
01.12.2013 09:34 -8,7 C 86 % 1025,9 hPa 0,0 l/m 0,0 km/h (0 Bft) O-SO 112 -10,6 C -8,4 C 0,0 km/h (0 Bft)
01.12.2013 09:35 -8,7 C 86 % 1025,9 hPa 0,0 l/m 0,0 km/h (0 Bft) O-SO 112 -10,6 C -8,4 C 0,0 km/h (0 Bft)
01.12.2013 09:45 -8,2 C 87 % 1025,9 hPa 0,0 l/m 0,0 km/h (0 Bft) O-SO 112 -10,0 C -8,1 C 0,0 km/h (0 Bft)
01.12.2013 09:50 -8,2 C 87 % 1025,9 hPa 0,0 l/m 0,0 km/h (0 Bft) O-SO 112 -10,0 C -8,0 C 0,0 km/h (0 Bft)
01.12.2013 09:56 -7,9 C 87 % 1025,9 hPa 0,0 l/m 0,0 km/h (0 Bft) O-SO 112 -9,7 C -7,9 C 0,0 km/h (0 Bft)
01.12.2013 10:00 -7,6 C 87 % 1025,9 hPa 0,0 l/m 0,0 km/h (0 Bft) O-SO 112 -9,4 C -7,6 C 0,0 km/h (0 Bft)
01.12.2013 10:07 -7,2 C 88 % 1026,0 hPa 0,0 l/m 0,0 km/h (0 Bft) O-SO 112 -8,8 C -7,2 C 0,0 km/h (0 Bft)
01.12.2013 10:10 -7,2 C 88 % 1026,0 hPa 0,0 l/m 0,0 km/h (0 Bft) O-SO 112 -8,8 C -7,2 C 0,0 km/h (0 Bft)
01.12.2013 10:18 -6,6 C 89 % 1026,0 hPa 0,0 l/m 0,0 km/h (0 Bft) O 90 -8,1 C -6,7 C 0,0 km/h (0 Bft)
01.12.2013 10:20 -6,6 C 89 % 1026,0 hPa 0,0 l/m 0,0 km/h (0 Bft) O 90 -8,1 C -6,7 C 0,0 km/h (0 Bft)
01.12.2013 10:29 -6,8 C 89 % 1026,3 hPa 0,0 l/m 0,0 km/h (0 Bft) O 90 -8,3 C -6,4 C 0,0 km/h (0 Bft)
01.12.2013 10:30 -6,8 C 89 % 1026,3 hPa 0,0 l/m 0,0 km/h (0 Bft) O 90 -8,3 C -6,4 C 0,0 km/h (0 Bft)
01.12.2013 10:40 -5,8 C 89 % 1026,3 hPa 0,0 l/m 0,0 km/h (0 Bft) NO 45 -7,3 C -6,0 C 0,0 km/h (0 Bft)
01.12.2013 10:45 -6,4 C 89 % 1026,6 hPa 0,0 l/m 0,0 km/h (0 Bft) O-SO 112 -7,9 C -5,9 C 0,0 km/h (0 Bft)
01.12.2013 10:51 -6,5 C 89 % 1026,6 hPa 0,0 l/m 0,0 km/h (0 Bft) O 90 -8,0 C -6,0 C 0,0 km/h (0 Bft)
01.12.2013 10:55 -6,2 C 89 % 1026,6 hPa 0,0 l/m 0,0 km/h (0 Bft) NO 45 -7,7 C -5,8 C 0,0 km/h (0 Bft)
01.12.2013 11:02 -5,9 C 89 % 1026,6 hPa 0,0 l/m 0,0 km/h (0 Bft) NO 45 -7,4 C -5,4 C 0,0 km/h (0 Bft)
01.12.2013 11:05 -5,4 C 90 % 1026,4 hPa 0,0 l/m 0,0 km/h (0 Bft) NO 45 -6,8 C -5,0 C 0,0 km/h (0 Bft)
01.12.2013 11:13 -5,1 C 90 % 1026,4 hPa 0,0 l/m 0,0 km/h (0 Bft) NO 45 -6,5 C -4,7 C 0,0 km/h (0 Bft)
01.12.2013 11:15 -5,1 C 90 % 1026,4 hPa 0,0 l/m 0,0 km/h (0 Bft) NO 45 -6,5 C -4,7 C 0,0 km/h (0 Bft)
01.12.2013 11:24 -4,6 C 91 % 1026,6 hPa 0,0 l/m 0,0 km/h (0 Bft) O-NO 67 -5,8 C -4,4 C 0,0 km/h (0 Bft)
01.12.2013 11:25 -4,6 C 91 % 1026,6 hPa 0,0 l/m 0,0 km/h (0 Bft) O-NO 67 -5,8 C -4,4 C 0,0 km/h (0 Bft)
01.12.2013 11:35 -4,4 C 91 % 1026,6 hPa 0,0 l/m 0,0 km/h (0 Bft) NO 45 -5,6 C -4,1 C 0,0 km/h (0 Bft)
01.12.2013 11:40 -4,3 C 91 % 1026,6 hPa 0,0 l/m 0,0 km/h (0 Bft) O 90 -5,5 C -4,1 C 0,0 km/h (0 Bft)
01.12.2013 11:46 -4,3 C 91 % 1026,2 hPa 0,0 l/m 0,0 km/h (0 Bft) NO 45 -5,5 C -4,1 C 0,0 km/h (0 Bft)
01.12.2013 11:50 -4,5 C 91 % 1026,2 hPa 0,0 l/m 0,0 km/h (0 Bft) O-NO 67 -5,7 C -4,1 C 0,0 km/h (0 Bft)
01.12.2013 11:57 -4,4 C 91 % 1026,2 hPa 0,0 l/m 0,0 km/h (0 Bft) O 90 -5,6 C -4,1 C 0,0 km/h (0 Bft)
01.12.2013 12:00 -4,5 C 91 % 1026,2 hPa 0,0 l/m 0,0 km/h (0 Bft) NO 45 -5,7 C -4,0 C 0,0 km/h (0 Bft)
01.12.2013 12:08 -4,0 C 92 % 1026,1 hPa 0,0 l/m 0,0 km/h (0 Bft) O 90 -5,1 C -3,7 C 0,0 km/h (0 Bft)
01.12.2013 12:10 -4,0 C 92 % 1026,1 hPa 0,0 l/m 0,0 km/h (0 Bft) O 90 -5,1 C -3,7 C 0,0 km/h (0 Bft)
01.12.2013 12:19 -3,6 C 92 % 1026,1 hPa 0,0 l/m 0,0 km/h (0 Bft) NO 45 -4,7 C -3,5 C 0,0 km/h (0 Bft)
01.12.2013 12:20 -3,6 C 92 % 1026,1 hPa 0,0 l/m 0,0 km/h (0 Bft) NO 45 -4,7 C -3,5 C 0,0 km/h (0 Bft)
01.12.2013 12:30 -3,6 C 92 % 1025,8 hPa 0,0 l/m 0,0 km/h (0 Bft) N-NW 337 -4,7 C -3,2 C 0,0 km/h (0 Bft)
01.12.2013 12:35 -3,5 C 92 % 1025,8 hPa 0,0 l/m 0,0 km/h (0 Bft) N-NO 22 -4,6 C -3,2 C 0,0 km/h (0 Bft)
01.12.2013 12:41 -3,3 C 92 % 1025,8 hPa 0,0 l/m 0,0 km/h (0 Bft) O-NO 67 -4,4 C -3,2 C 0,0 km/h (0 Bft)
01.12.2013 12:45 -3,2 C 93 % 1025,6 hPa 0,0 l/m 0,0 km/h (0 Bft) O-NO 67 -4,2 C -3,0 C 0,0 km/h (0 Bft)
01.12.2013 12:52 -3,1 C 93 % 1025,6 hPa 0,0 l/m 0,0 km/h (0 Bft) N-NO 22 -4,1 C -3,0 C 0,0 km/h (0 Bft)
01.12.2013 12:55 -2,9 C 93 % 1025,6 hPa 0,0 l/m 0,0 km/h (0 Bft) NO 45 -3,9 C -2,8 C 0,0 km/h (0 Bft)
01.12.2013 13:03 -2,8 C 93 % 1025,8 hPa 0,0 l/m 0,0 km/h (0 Bft) NO 45 -3,8 C -2,5 C 0,0 km/h (0 Bft)
01.12.2013 13:05 -2,8 C 93 % 1025,8 hPa 0,0 l/m 0,0 km/h (0 Bft) NO 45 -3,8 C -2,5 C 0,0 km/h (0 Bft)
01.12.2013 13:14 -2,8 C 93 % 1025,8 hPa 0,0 l/m 0,0 km/h (0 Bft) N-NW 337 -3,8 C -2,4 C 0,0 km/h (0 Bft)
01.12.2013 13:15 -2,8 C 93 % 1025,8 hPa 0,0 l/m 0,0 km/h (0 Bft) N-NW 337 -3,8 C -2,4 C 0,0 km/h (0 Bft)
01.12.2013 13:25 -3,1 C 93 % 1025,9 hPa 0,0 l/m 0,0 km/h (0 Bft) NO 45 -4,1 C -2,5 C 0,0 km/h (0 Bft)
01.12.2013 13:30 -3,2 C 93 % 1025,9 hPa 0,0 l/m 0,0 km/h (0 Bft) N-NW 337 -4,2 C -2,3 C 0,0 km/h (0 Bft)
01.12.2013 13:36 -3,0 C 93 % 1025,9 hPa 0,0 l/m 0,0 km/h (0 Bft) N 360 -4,0 C -0,5 C 0,0 km/h (0 Bft)
01.12.2013 13:40 -2,9 C 93 % 1025,9 hPa 0,0 l/m 0,0 km/h (0 Bft) N-NO 22 -3,9 C 0,8 C 0,0 km/h (0 Bft)
01.12.2013 13:47 -2,4 C 93 % 1025,8 hPa 0,0 l/m 0,0 km/h (0 Bft) N-NW 337 -3,4 C 2,8 C 0,0 km/h (0 Bft)
01.12.2013 13:50 -2,4 C 93 % 1025,8 hPa 0,0 l/m 0,0 km/h (0 Bft) N-NW 337 -3,4 C 2,8 C 0,0 km/h (0 Bft)
01.12.2013 13:58 -1,6 C 92 % 1025,8 hPa 0,0 l/m 0,5 km/h (0 Bft) N 360 -2,7 C 3,6 C 6,4 km/h (2 Bft)
01.12.2013 14:00 -1,6 C 92 % 1025,8 hPa 0,0 l/m 0,5 km/h (0 Bft) N 360 -2,7 C 3,6 C 0,0 km/h (0 Bft)
01.12.2013 14:09 -1,8 C 90 % 1025,9 hPa 0,0 l/m 0,0 km/h (0 Bft) N 360 -3,2 C 4,1 C 0,0 km/h (0 Bft)
01.12.2013 14:10 -1,8 C 90 % 1025,9 hPa 0,0 l/m 0,0 km/h (0 Bft) N 360 -3,2 C 4,1 C 0,0 km/h (0 Bft)
01.12.2013 14:20 -2,3 C 90 % 1025,9 hPa 0,0 l/m 0,0 km/h (0 Bft) NO 45 -3,7 C 2,9 C 0,0 km/h (0 Bft)
01.12.2013 14:25 -2,3 C 90 % 1025,7 hPa 0,0 l/m 0,5 km/h (0 Bft) NO 45 -3,7 C 2,4 C 0,0 km/h (0 Bft)
01.12.2013 14:31 -2,4 C 90 % 1025,7 hPa 0,0 l/m 0,5 km/h (0 Bft) N-NO 22 -3,8 C 2,8 C 0,0 km/h (0 Bft)
01.12.2013 14:35 -2,6 C 90 % 1025,7 hPa 0,0 l/m 0,0 km/h (0 Bft) O-NO 67 -4,0 C 3,1 C 0,0 km/h (0 Bft)
01.12.2013 14:42 -2,7 C 91 % 1025,7 hPa 0,0 l/m 0,0 km/h (0 Bft) NO 45 -4,0 C 1,0 C 0,0 km/h (0 Bft)
01.12.2013 14:45 -2,7 C 91 % 1025,7 hPa 0,0 l/m 0,0 km/h (0 Bft) NO 45 -4,0 C 1,0 C 0,0 km/h (0 Bft)
01.12.2013 14:53 -3,1 C 91 % 1025,7 hPa 0,0 l/m 1,4 km/h (1 Bft) NO 45 -4,4 C -0,5 C 7,4 km/h (2 Bft)
01.12.2013 14:55 -3,1 C 91 % 1025,7 hPa 0,0 l/m 1,4 km/h (1 Bft) NO 45 -4,4 C -0,5 C 5,0 km/h (1 Bft)
01.12.2013 15:04 -3,2 C 91 % 1025,7 hPa 0,0 l/m 1,3 km/h (1 Bft) NO 45 -4,5 C -0,8 C 0,0 km/h (0 Bft)
01.12.2013 15:05 -3,2 C 91 % 1025,7 hPa 0,0 l/m 1,3 km/h (1 Bft) NO 45 -4,5 C -0,8 C 0,0 km/h (0 Bft)
01.12.2013 15:15 -3,5 C 91 % 1025,7 hPa 0,0 l/m 0,0 km/h (0 Bft) O-NO 67 -4,8 C -2,0 C 0,0 km/h (0 Bft)
01.12.2013 15:20 -3,4 C 91 % 1025,7 hPa 0,0 l/m 0,0 km/h (0 Bft) O-NO 67 -4,7 C -2,3 C 0,0 km/h (0 Bft)
01.12.2013 15:26 -3,2 C 92 % 1025,9 hPa 0,0 l/m 0,0 km/h (0 Bft) NO 45 -4,3 C -2,7 C 0,0 km/h (0 Bft)
01.12.2013 15:30 -3,4 C 92 % 1025,9 hPa 0,0 l/m 0,0 km/h (0 Bft) NO 45 -4,5 C -2,9 C 0,0 km/h (0 Bft)
01.12.2013 15:37 -3,2 C 92 % 1025,9 hPa 0,0 l/m 0,0 km/h (0 Bft) O 90 -4,3 C -3,1 C 0,0 km/h (0 Bft)
01.12.2013 15:40 -3,3 C 92 % 1025,9 hPa 0,0 l/m 0,0 km/h (0 Bft) NO 45 -4,4 C -3,2 C 0,0 km/h (0 Bft)
01.12.2013 15:48 -3,4 C 92 % 1025,9 hPa 0,0 l/m 0,0 km/h (0 Bft) O 90 -4,5 C -3,2 C 0,0 km/h (0 Bft)
01.12.2013 15:50 -3,4 C 92 % 1025,9 hPa 0,0 l/m 0,0 km/h (0 Bft) O 90 -4,5 C -3,2 C 0,0 km/h (0 Bft)
01.12.2013 15:59 -3,5 C 92 % 1025,9 hPa 0,0 l/m 0,0 km/h (0 Bft) O-NO 67 -4,6 C -3,5 C 0,0 km/h (0 Bft)
01.12.2013 16:00 -3,5 C 92 % 1025,9 hPa 0,0 l/m 0,0 km/h (0 Bft) O-NO 67 -4,6 C -3,5 C 0,0 km/h (0 Bft)
01.12.2013 16:10 -3,8 C 92 % 1026,0 hPa 0,0 l/m 0,0 km/h (0 Bft) NO 45 -4,9 C -3,8 C 0,0 km/h (0 Bft)
01.12.2013 16:15 -3,9 C 92 % 1026,0 hPa 0,0 l/m 0,0 km/h (0 Bft) O 90 -5,0 C -4,1 C 0,0 km/h (0 Bft)
01.12.2013 16:21 -4,0 C 92 % 1026,0 hPa 0,0 l/m 0,0 km/h (0 Bft) O 90 -5,1 C -4,3 C 0,0 km/h (0 Bft)
01.12.2013 16:25 -5,1 C 92 % 1026,1 hPa 0,0 l/m 0,0 km/h (0 Bft) NO 45 -6,2 C -4,7 C 0,0 km/h (0 Bft)
01.12.2013 16:32 -5,5 C 91 % 1026,1 hPa 0,0 l/m 0,0 km/h (0 Bft) NO 45 -6,7 C -5,0 C 0,0 km/h (0 Bft)
01.12.2013 16:35 -4,9 C 91 % 1026,1 hPa 0,0 l/m 0,0 km/h (0 Bft) O 90 -6,1 C -5,4 C 0,0 km/h (0 Bft)
01.12.2013 16:43 -5,5 C 91 % 1026,2 hPa 0,0 l/m 0,0 km/h (0 Bft) NO 45 -6,7 C -5,7 C 0,0 km/h (0 Bft)
01.12.2013 16:45 -5,5 C 91 % 1026,2 hPa 0,0 l/m 0,0 km/h (0 Bft) NO 45 -6,7 C -5,7 C 0,0 km/h (0 Bft)
01.12.2013 16:54 -5,8 C 91 % 1026,2 hPa 0,0 l/m 0,0 km/h (0 Bft) N-NW 337 -7,0 C -6,0 C 0,0 km/h (0 Bft)
01.12.2013 16:55 -5,8 C 91 % 1026,2 hPa 0,0 l/m 0,0 km/h (0 Bft) N-NW 337 -7,0 C -6,0 C 0,0 km/h (0 Bft)
01.12.2013 17:05 -4,9 C 91 % 1026,5 hPa 0,0 l/m 0,0 km/h (0 Bft) O 90 -6,1 C -5,7 C 0,0 km/h (0 Bft)
01.12.2013 17:10 -5,1 C 91 % 1026,5 hPa 0,0 l/m 0,0 km/h (0 Bft) O 90 -6,3 C -5,8 C 0,0 km/h (0 Bft)
01.12.2013 17:16 -6,0 C 91 % 1026,5 hPa 0,0 l/m 0,0 km/h (0 Bft) O 90 -7,2 C -6,1 C 0,0 km/h (0 Bft)
01.12.2013 17:20 -5,6 C 91 % 1026,5 hPa 0,0 l/m 0,0 km/h (0 Bft) O 90 -6,8 C -6,3 C 0,0 km/h (0 Bft)
01.12.2013 17:27 -5,2 C 91 % 1026,6 hPa 0,0 l/m 0,0 km/h (0 Bft) O 90 -6,4 C -6,0 C 0,0 km/h (0 Bft)
01.12.2013 17:30 -5,1 C 91 % 1026,6 hPa 0,0 l/m 0,0 km/h (0 Bft) NO 45 -6,3 C -6,0 C 0,0 km/h (0 Bft)
01.12.2013 17:38 -6,2 C 90 % 1026,6 hPa 0,0 l/m 0,0 km/h (0 Bft) O-NO 67 -7,6 C -6,5 C 0,0 km/h (0 Bft)
01.12.2013 17:40 -6,2 C 90 % 1026,6 hPa 0,0 l/m 0,0 km/h (0 Bft) O-NO 67 -7,6 C -6,5 C 0,0 km/h (0 Bft)
01.12.2013 17:49 -6,0 C 91 % 1026,5 hPa 0,0 l/m 0,0 km/h (0 Bft) O 90 -7,2 C -6,4 C 0,0 km/h (0 Bft)
01.12.2013 17:50 -6,0 C 91 % 1026,5 hPa 0,0 l/m 0,0 km/h (0 Bft) O 90 -7,2 C -6,4 C 0,0 km/h (0 Bft)
01.12.2013 18:00 -6,1 C 91 % 1026,5 hPa 0,0 l/m 0,0 km/h (0 Bft) O 90 -7,3 C -6,5 C 0,0 km/h (0 Bft)
01.12.2013 18:03 -5,9 C 91 % 1026,7 hPa 0,0 l/m 0,0 km/h (0 Bft) NO 45 -7,1 C -6,4 C 0,0 km/h (0 Bft)
01.12.2013 18:10 -5,9 C 91 % 1026,7 hPa 0,0 l/m 0,0 km/h (0 Bft) O-NO 67 -7,1 C -6,3 C 0,0 km/h (0 Bft)
01.12.2013 18:15 -6,8 C 90 % 1026,7 hPa 0,0 l/m 0,0 km/h (0 Bft) O-SO 112 -8,2 C -6,5 C 0,0 km/h (0 Bft)
01.12.2013 18:21 -7,0 C 90 % 1026,7 hPa 0,0 l/m 0,0 km/h (0 Bft) O-SO 112 -8,4 C -6,7 C 0,0 km/h (0 Bft)
01.12.2013 18:25 -6,9 C 90 % 1027,1 hPa 0,0 l/m 0,0 km/h (0 Bft) NO 45 -8,3 C -7,0 C 0,0 km/h (0 Bft)
01.12.2013 18:32 -7,5 C 89 % 1027,1 hPa 0,0 l/m 0,0 km/h (0 Bft) NO 45 -9,0 C -7,4 C 0,0 km/h (0 Bft)
01.12.2013 18:35 -7,5 C 89 % 1027,1 hPa 0,0 l/m 0,0 km/h (0 Bft) NO 45 -9,0 C -7,4 C 0,0 km/h (0 Bft)
01.12.2013 18:43 -7,3 C 89 % 1027,4 hPa 0,0 l/m 0,0 km/h (0 Bft) NO 45 -8,8 C -7,6 C 0,0 km/h (0 Bft)
01.12.2013 18:45 -7,3 C 89 % 1027,4 hPa 0,0 l/m 0,0 km/h (0 Bft) NO 45 -8,8 C -7,6 C 0,0 km/h (0 Bft)
01.12.2013 18:54 -7,7 C 89 % 1027,4 hPa 0,0 l/m 0,0 km/h (0 Bft) O 90 -9,2 C -7,8 C 0,0 km/h (0 Bft)
01.12.2013 18:55 -7,7 C 89 % 1027,4 hPa 0,0 l/m 0,0 km/h (0 Bft) O 90 -9,2 C -7,8 C 0,0 km/h (0 Bft)
01.12.2013 19:05 -7,8 C 88 % 1027,4 hPa 0,0 l/m 0,0 km/h (0 Bft) O 90 -9,4 C -8,0 C 0,0 km/h (0 Bft)
01.12.2013 19:10 -7,9 C 88 % 1027,4 hPa 0,0 l/m 0,0 km/h (0 Bft) O 90 -9,5 C -8,0 C 0,0 km/h (0 Bft)
01.12.2013 19:16 -8,3 C 88 % 1027,4 hPa 0,0 l/m 0,0 km/h (0 Bft) O 90 -9,9 C -8,2 C 0,0 km/h (0 Bft)
01.12.2013 19:20 -7,8 C 88 % 1027,4 hPa 0,0 l/m 0,0 km/h (0 Bft) O 90 -9,4 C -8,2 C 0,0 km/h (0 Bft)
01.12.2013 19:27 -8,3 C 88 % 1027,4 hPa 0,0 l/m 0,0 km/h (0 Bft) NO 45 -9,9 C -8,3 C 0,0 km/h (0 Bft)
01.12.2013 19:30 -8,3 C 88 % 1027,4 hPa 0,0 l/m 0,0 km/h (0 Bft) NO 45 -9,9 C -8,3 C 0,0 km/h (0 Bft)
01.12.2013 19:38 -8,9 C 87 % 1027,4 hPa 0,0 l/m 0,0 km/h (0 Bft) NO 45 -10,7 C -8,4 C 0,0 km/h (0 Bft)
01.12.2013 19:40 -8,9 C 87 % 1027,4 hPa 0,0 l/m 0,0 km/h (0 Bft) NO 45 -10,7 C -8,4 C 0,0 km/h (0 Bft)
01.12.2013 19:49 -8,4 C 87 % 1027,4 hPa 0,0 l/m 0,0 km/h (0 Bft) NO 45 -10,2 C -8,6 C 0,0 km/h (0 Bft)
01.12.2013 19:50 -8,4 C 87 % 1027,4 hPa 0,0 l/m 0,0 km/h (0 Bft) NO 45 -10,2 C -8,6 C 0,0 km/h (0 Bft)
01.12.2013 20:00 -8,9 C 87 % 1027,4 hPa 0,0 l/m 0,0 km/h (0 Bft) N-NO 22 -10,7 C -8,7 C 0,0 km/h (0 Bft)
01.12.2013 20:05 -8,9 C 87 % 1027,4 hPa 0,0 l/m 0,0 km/h (0 Bft) NO 45 -10,7 C -8,9 C 0,0 km/h (0 Bft)
01.12.2013 20:11 -8,6 C 87 % 1027,4 hPa 0,0 l/m 0,0 km/h (0 Bft) O-SO 112 -10,4 C -8,9 C 0,0 km/h (0 Bft)
01.12.2013 20:15 -8,6 C 87 % 1027,4 hPa 0,0 l/m 0,0 km/h (0 Bft) N-NO 22 -10,4 C -8,5 C 0,0 km/h (0 Bft)
01.12.2013 20:22 -8,9 C 86 % 1027,6 hPa 0,0 l/m 0,0 km/h (0 Bft) N-NO 22 -10,8 C -8,8 C 0,0 km/h (0 Bft)
01.12.2013 20:25 -8,9 C 86 % 1027,6 hPa 0,0 l/m 0,0 km/h (0 Bft) N-NO 22 -10,8 C -8,8 C 0,0 km/h (0 Bft)
01.12.2013 20:33 -8,9 C 86 % 1027,6 hPa 0,0 l/m 0,0 km/h (0 Bft) O 90 -10,8 C -8,9 C 0,0 km/h (0 Bft)
01.12.2013 20:35 -8,9 C 86 % 1027,6 hPa 0,0 l/m 0,0 km/h (0 Bft) O 90 -10,8 C -8,9 C 0,0 km/h (0 Bft)
01.12.2013 20:44 -9,3 C 86 % 1027,2 hPa 0,0 l/m 0,0 km/h (0 Bft) N 360 -11,2 C -9,0 C 0,0 km/h (0 Bft)
01.12.2013 20:45 -9,3 C 86 % 1027,2 hPa 0,0 l/m 0,0 km/h (0 Bft) N 360 -11,2 C -9,0 C 0,0 km/h (0 Bft)
01.12.2013 20:55 -9,3 C 86 % 1027,2 hPa 0,0 l/m 0,0 km/h (0 Bft) N-NO 22 -11,2 C -9,2 C 0,0 km/h (0 Bft)
01.12.2013 21:00 -9,5 C 86 % 1027,2 hPa 0,0 l/m 0,0 km/h (0 Bft) NO 45 -11,4 C -9,2 C 0,0 km/h (0 Bft)
01.12.2013 21:06 -9,5 C 85 % 1027,3 hPa 0,0 l/m 0,0 km/h (0 Bft) N 360 -11,5 C -9,2 C 0,0 km/h (0 Bft)
01.12.2013 21:10 -9,3 C 85 % 1027,3 hPa 0,0 l/m 0,0 km/h (0 Bft) O 90 -11,3 C -9,1 C 0,0 km/h (0 Bft)
01.12.2013 21:17 -9,3 C 86 % 1027,3 hPa 0,0 l/m 0,0 km/h (0 Bft) O 90 -11,2 C -9,3 C 0,0 km/h (0 Bft)
01.12.2013 21:20 -9,5 C 85 % 1027,3 hPa 0,0 l/m 0,0 km/h (0 Bft) N 360 -11,5 C -9,3 C 0,0 km/h (0 Bft)
01.12.2013 21:28 -9,3 C 86 % 1027,4 hPa 0,0 l/m 0,0 km/h (0 Bft) O 90 -11,2 C -9,4 C 0,0 km/h (0 Bft)
01.12.2013 21:30 -9,3 C 86 % 1027,4 hPa 0,0 l/m 0,0 km/h (0 Bft) O 90 -11,2 C -9,4 C 0,0 km/h (0 Bft)
01.12.2013 21:39 -9,3 C 86 % 1027,4 hPa 0,0 l/m 0,0 km/h (0 Bft) NO 45 -11,2 C -9,3 C 0,0 km/h (0 Bft)
01.12.2013 21:40 -9,3 C 86 % 1027,4 hPa 0,0 l/m 0,0 km/h (0 Bft) NO 45 -11,2 C -9,3 C 0,0 km/h (0 Bft)
01.12.2013 21:50 -8,7 C 86 % 1027,6 hPa 0,0 l/m 0,0 km/h (0 Bft) NO 45 -10,6 C -9,3 C 0,0 km/h (0 Bft)
01.12.2013 21:55 -9,6 C 86 % 1027,6 hPa 0,0 l/m 0,0 km/h (0 Bft) N 360 -11,5 C -9,4 C 0,0 km/h (0 Bft)
01.12.2013 22:01 -9,8 C 85 % 1027,6 hPa 0,0 l/m 0,0 km/h (0 Bft) N 360 -11,8 C -9,6 C 0,0 km/h (0 Bft)
01.12.2013 22:05 -10,1 C 85 % 1027,7 hPa 0,0 l/m 0,0 km/h (0 Bft) N 360 -12,1 C -9,9 C 0,0 km/h (0 Bft)
01.12.2013 22:12 -9,9 C 85 % 1027,7 hPa 0,0 l/m 0,0 km/h (0 Bft) N 360 -11,9 C -10,0 C 0,0 km/h (0 Bft)
01.12.2013 22:15 -10,0 C 85 % 1027,7 hPa 0,0 l/m 0,0 km/h (0 Bft) N 360 -12,0 C -9,9 C 0,0 km/h (0 Bft)
01.12.2013 22:23 -10,0 C 85 % 1027,6 hPa 0,0 l/m 0,0 km/h (0 Bft) N 360 -12,0 C -10,0 C 0,0 km/h (0 Bft)
01.12.2013 22:25 -10,0 C 85 % 1027,6 hPa 0,0 l/m 0,0 km/h (0 Bft) N 360 -12,0 C -10,0 C 0,0 km/h (0 Bft)
01.12.2013 22:34 -10,0 C 85 % 1027,6 hPa 0,0 l/m 0,0 km/h (0 Bft) N 360 -12,0 C -9,9 C 0,0 km/h (0 Bft)
01.12.2013 22:35 -10,0 C 85 % 1027,6 hPa 0,0 l/m 0,0 km/h (0 Bft) N 360 -12,0 C -9,9 C 0,0 km/h (0 Bft)
01.12.2013 22:45 -9,0 C 85 % 1027,4 hPa 0,0 l/m 0,0 km/h (0 Bft) O-NO 67 -11,0 C -10,0 C 0,0 km/h (0 Bft)
01.12.2013 22:50 -9,4 C 85 % 1027,4 hPa 0,0 l/m 0,0 km/h (0 Bft) O 90 -11,4 C -9,9 C 0,0 km/h (0 Bft)
01.12.2013 22:56 -10,2 C 85 % 1027,4 hPa 0,0 l/m 0,0 km/h (0 Bft) N 360 -12,2 C -10,1 C 0,0 km/h (0 Bft)
01.12.2013 23:00 -10,2 C 85 % 1027,4 hPa 0,0 l/m 0,0 km/h (0 Bft) N-NO 22 -12,2 C -10,1 C 0,0 km/h (0 Bft)
01.12.2013 23:06 -10,2 C 84 % 1027,3 hPa 0,0 l/m 0,0 km/h (0 Bft) N 360 -12,4 C -10,1 C 0,0 km/h (0 Bft)
01.12.2013 23:10 -9,7 C 85 % 1027,3 hPa 0,0 l/m 0,0 km/h (0 Bft) O-NO 67 -11,7 C -10,1 C 0,0 km/h (0 Bft)
01.12.2013 23:17 -10,4 C 84 % 1027,3 hPa 0,0 l/m 0,0 km/h (0 Bft) N 360 -12,6 C -10,1 C 0,0 km/h (0 Bft)
01.12.2013 23:20 -10,4 C 84 % 1027,3 hPa 0,0 l/m 0,0 km/h (0 Bft) N 360 -12,6 C -10,1 C 0,0 km/h (0 Bft)
01.12.2013 23:28 -10,1 C 84 % 1027,4 hPa 0,0 l/m 0,0 km/h (0 Bft) N 360 -12,3 C -10,2 C 0,0 km/h (0 Bft)
01.12.2013 23:30 -10,1 C 84 % 1027,4 hPa 0,0 l/m 0,0 km/h (0 Bft) N 360 -12,3 C -10,2 C 0,0 km/h (0 Bft)
01.12.2013 23:39 -9,8 C 84 % 1027,4 hPa 0,0 l/m 0,0 km/h (0 Bft) O 90 -12,0 C -10,0 C 0,0 km/h (0 Bft)
01.12.2013 23:40 -9,8 C 84 % 1027,4 hPa 0,0 l/m 0,0 km/h (0 Bft) O 90 -12,0 C -10,0 C 0,0 km/h (0 Bft)
01.12.2013 23:50 -9,7 C 85 % 1027,5 hPa 0,0 l/m 0,0 km/h (0 Bft) N-NO 22 -11,7 C -9,8 C 0,0 km/h (0 Bft)
01.12.2013 23:55 -10,0 C 85 % 1027,5 hPa 0,0 l/m 0,0 km/h (0 Bft) N 360 -12,0 C -9,8 C 0,0 km/h (0 Bft)
_ Min-Zeit 07:35 23:40 00:20 - 23:55 - - 07:35 23:30 23:55
Minimum _ -10,8 C 84 % 1024,3 hPa - 0,0 km/h (0 Bft) - - -13,0 C -10,2 C 0,0 km/h (0 Bft)
_ Max-Zeit 14:00 00:15 22:15 23:55 14:55 - - 14:00 14:10 14:53
Maximum _ -1,6 C 95 % 1027,7 hPa 0,0 l/m 1,4 km/h
NO (1 Bft)
- - -2,7 C 4,1 C 7,4 km/h
NO (2 Bft)
Durchschnitt _ -6,7 C 89 % 1026,0 hPa #0,0 l/m 0,0 km/h (0 Bft) NO - -8,2 C -6,4 C 0,1 km/h (0 Bft)